Hourly Weather Avgustovo

Today, 22 September, Tuesday

Time Temperature Precipitation Wind Pressure Humidity
00:00 +11°C° 0 mm 3 mps 745 mmHg 88%
01:00 +11°C° 0 mm 3 mps 745 mmHg 88%
02:00 +10°C° 0 mm 3 mps 745 mmHg 87%
03:00 +10°C° 0 mm 3 mps 745 mmHg 87%
04:00 +10°C° 0 mm 3 mps 745 mmHg 86%
05:00 +9°C° 0 mm 3 mps 745 mmHg 86%
06:00 +10°C° 0 mm 3 mps 745 mmHg 82%
07:00 +11°C° 0 mm 3 mps 745 mmHg 78%
08:00 +13°C° 0 mm 4 mps 745 mmHg 72%
09:00 +15°C° 0 mm 4 mps 745 mmHg 67%
10:00 +17°C° 0 mm 4 mps 745 mmHg 62%
11:00 +19°C° 0 mm 4 mps 745 mmHg 57%
12:00 +20°C° 0 mm 4 mps 745 mmHg 55%
13:00 +21°C° 0 mm 4 mps 745 mmHg 54%
14:00 +21°C° 0 mm 4 mps 744 mmHg 52%
15:00 +21°C° 0 mm 4 mps 744 mmHg 57%
16:00 +20°C° 0 mm 3 mps 744 mmHg 62%
17:00 +19°C° 0 mm 2 mps 743 mmHg 67%
18:00 +18°C° 0 mm 2 mps 743 mmHg 72%
19:00 +16°C° 0 mm 2 mps 743 mmHg 76%
20:00 +15°C° 0 mm 2 mps 743 mmHg 81%
21:00 +14°C° 0 mm 2 mps 743 mmHg 83%
22:00 +14°C° 0 mm 2 mps 743 mmHg 85%
23:00 +13°C° 0 mm 2 mps 743 mmHg 87%

Tomorrow, 23 September, Wednesday

Time Temperature Precipitation Wind Pressure Humidity
00:00 +13°C° 0 mm 2 mps 743 mmHg 87%
01:00 +13°C° 0 mm 2 mps 743 mmHg 88%
02:00 +13°C° 0 mm 2 mps 743 mmHg 88%
03:00 +12°C° 0 mm 2 mps 743 mmHg 88%
04:00 +12°C° 0 mm 2 mps 743 mmHg 88%
05:00 +12°C° 0 mm 2 mps 742 mmHg 88%
06:00 +13°C° 0 mm 2 mps 742 mmHg 85%
07:00 +13°C° 0 mm 3 mps 742 mmHg 81%
08:00 +14°C° 0 mm 3 mps 742 mmHg 78%
09:00 +16°C° 0 mm 3 mps 742 mmHg 73%
10:00 +18°C° 0 mm 3 mps 742 mmHg 67%
11:00 +20°C° 0 mm 4 mps 742 mmHg 61%
12:00 +21°C° 0 mm 4 mps 742 mmHg 56%
13:00 +22°C° 0 mm 4 mps 742 mmHg 51%
14:00 +22°C° 0 mm 5 mps 742 mmHg 46%
15:00 +21°C° 0 mm 4 mps 741 mmHg 50%
16:00 +20°C° 0 mm 4 mps 741 mmHg 54%
17:00 +19°C° 0 mm 3 mps 741 mmHg 58%
18:00 +18°C° 0 mm 3 mps 741 mmHg 59%
19:00 +17°C° 0 mm 3 mps 741 mmHg 61%
20:00 +14°C° 0 mm 3 mps 741 mmHg 63%
21:00 +14°C° 0 mm 3 mps 741 mmHg 63%
22:00 +13°C° 0 mm 3 mps 741 mmHg 63%
23:00 +13°C° 0 mm 3 mps 741 mmHg 63%

Day after tomorrow, 24 September, Thursday

Time Temperature Precipitation Wind Pressure Humidity
00:00 +12°C° 0 mm 3 mps 741 mmHg 63%
01:00 +11°C° 0 mm 3 mps 741 mmHg 64%
02:00 +11°C° 0 mm 3 mps 741 mmHg 64%
03:00 +10°C° 0 mm 3 mps 741 mmHg 65%
04:00 +10°C° 0 mm 3 mps 740 mmHg 65%
05:00 +10°C° 0 mm 3 mps 740 mmHg 66%
06:00 +11°C° 0 mm 3 mps 740 mmHg 64%
07:00 +12°C° 0 mm 4 mps 741 mmHg 61%
08:00 +12°C° 0 mm 4 mps 741 mmHg 59%
09:00 +14°C° 0 mm 4 mps 741 mmHg 55%
10:00 +17°C° 0 mm 4 mps 741 mmHg 50%
11:00 +19°C° 0 mm 4 mps 741 mmHg 46%
12:00 +20°C° 0 mm 4 mps 741 mmHg 44%
13:00 +21°C° 0 mm 4 mps 741 mmHg 41%
14:00 +22°C° 0 mm 4 mps 741 mmHg 39%
15:00 +21°C° 0 mm 4 mps 741 mmHg 45%
16:00 +20°C° 0 mm 3 mps 741 mmHg 51%
17:00 +19°C° 0 mm 3 mps 741 mmHg 57%
18:00 +18°C° 0 mm 3 mps 741 mmHg 61%
19:00 +16°C° 0 mm 3 mps 741 mmHg 64%
20:00 +14°C° 0 mm 3 mps 741 mmHg 68%
21:00 +13°C° 0 mm 3 mps 741 mmHg 69%
22:00 +13°C° 0 mm 3 mps 741 mmHg 71%
23:00 +12°C° 0 mm 3 mps 741 mmHg 73%

25 September, Friday

Time Temperature Precipitation Wind Pressure Humidity
00:00 +12°C° 0 mm 3 mps 741 mmHg 74%
01:00 +11°C° 0 mm 3 mps 740 mmHg 75%
02:00 +11°C° 0 mm 3 mps 740 mmHg 76%
03:00 +11°C° 0 mm 3 mps 740 mmHg 74%
04:00 +11°C° 0 mm 3 mps 740 mmHg 72%
05:00 +10°C° 0 mm 3 mps 740 mmHg 70%
06:00 +11°C° 0 mm 3 mps 740 mmHg 67%
07:00 +12°C° 0 mm 3 mps 740 mmHg 64%
08:00 +13°C° 0 mm 4 mps 740 mmHg 62%
09:00 +15°C° 0 mm 4 mps 739 mmHg 59%
10:00 +18°C° 0 mm 4 mps 739 mmHg 56%
11:00 +20°C° 0 mm 4 mps 739 mmHg 53%
12:00 +21°C° 0 mm 4 mps 739 mmHg 51%
13:00 +22°C° 0 mm 5 mps 739 mmHg 48%
14:00 +23°C° 0 mm 5 mps 739 mmHg 46%
15:00 +22°C° 0 mm 5 mps 738 mmHg 51%
16:00 +21°C° 0 mm 5 mps 738 mmHg 55%
17:00 +20°C° 0 mm 4 mps 738 mmHg 60%
18:00 +19°C° 0 mm 5 mps 738 mmHg 63%
19:00 +17°C° 0 mm 5 mps 738 mmHg 65%
20:00 +17°C° 0 mm 5 mps 738 mmHg 68%
21:00 +16°C° 0 mm 5 mps 738 mmHg 66%
22:00 +16°C° 0 mm 5 mps 738 mmHg 63%
23:00 +16°C° 0 mm 5 mps 738 mmHg 61%

26 September, Saturday

Time Temperature Precipitation Wind Pressure Humidity
00:00 +15°C° 0 mm 5 mps 737 mmHg 60%
01:00 +15°C° 0 mm 5 mps 737 mmHg 59%
02:00 +14°C° 0 mm 5 mps 737 mmHg 58%
03:00 +14°C° 0 mm 5 mps 737 mmHg 59%
04:00 +13°C° 0 mm 5 mps 737 mmHg 59%
05:00 +13°C° 0 mm 5 mps 737 mmHg 59%
06:00 +13°C° 0 mm 5 mps 737 mmHg 61%
07:00 +14°C° 0 mm 6 mps 737 mmHg 62%
08:00 +14°C° 0 mm 6 mps 737 mmHg 64%
09:00 +16°C° 0 mm 6 mps 737 mmHg 61%
10:00 +18°C° 0 mm 7 mps 737 mmHg 58%
11:00 +21°C° 0 mm 7 mps 737 mmHg 56%
12:00 +21°C° 0 mm 7 mps 737 mmHg 54%
13:00 +22°C° 0 mm 7 mps 737 mmHg 52%
14:00 +23°C° 0 mm 8 mps 737 mmHg 51%
15:00 +22°C° 0 mm 7 mps 737 mmHg 54%
16:00 +21°C° 0 mm 6 mps 737 mmHg 58%
17:00 +21°C° 0 mm 6 mps 737 mmHg 61%
18:00 +20°C° 0 mm 6 mps 737 mmHg 62%
19:00 +19°C° 0 mm 6 mps 737 mmHg 63%
20:00 +17°C° 0 mm 6 mps 737 mmHg 64%
21:00 +16°C° 0 mm 6 mps 737 mmHg 64%
22:00 +16°C° 0 mm 6 mps 737 mmHg 64%
23:00 +16°C° 0 mm 5 mps 737 mmHg 65%

27 September, Sunday

Time Temperature Precipitation Wind Pressure Humidity
00:00 +15°C° 0 mm 5 mps 737 mmHg 62%
01:00 +15°C° 0 mm 6 mps 737 mmHg 59%
02:00 +15°C° 0 mm 6 mps 736 mmHg 57%
03:00 +15°C° 0.1 mm 6 mps 737 mmHg 60%
04:00 +15°C° 0.1 mm 6 mps 737 mmHg 62%
05:00 +14°C° 0.1 mm 6 mps 737 mmHg 65%
06:00 +15°C° 0 mm 7 mps 737 mmHg 64%
07:00 +15°C° 0 mm 7 mps 737 mmHg 63%
08:00 +16°C° 0 mm 8 mps 737 mmHg 62%
09:00 +17°C° 0 mm 8 mps 737 mmHg 57%
10:00 +18°C° 0 mm 9 mps 737 mmHg 52%
11:00 +19°C° 0 mm 10 mps 737 mmHg 48%
12:00 +19°C° 0 mm 9 mps 737 mmHg 48%
13:00 +19°C° 0 mm 9 mps 737 mmHg 48%
14:00 +19°C° 0 mm 9 mps 736 mmHg 48%
15:00 +18°C° 0 mm 8 mps 736 mmHg 52%
16:00 +17°C° 0 mm 8 mps 736 mmHg 56%
17:00 +16°C° 0 mm 7 mps 736 mmHg 60%
18:00 +15°C° 0.3 mm 7 mps 736 mmHg 66%
19:00 +15°C° 0.3 mm 7 mps 736 mmHg 73%
20:00 +14°C° 0.3 mm 7 mps 736 mmHg 80%
21:00 +14°C° 0.1 mm 6 mps 736 mmHg 82%
22:00 +14°C° 0.1 mm 6 mps 736 mmHg 83%
23:00 +14°C° 0.1 mm 5 mps 736 mmHg 85%
Show more